Ft Lauderdale, FL

1:28 AM EDT on April 27, 2017 (GMT -0400)
Fort Lauderdale-Hollywood International

Weather History for KFLL - January, 2013

Change the Weather History Date:

Sunday, January 6, 2013

  Actual Average Record
Temperature  
Mean Temperature 75 °F 69 °F  
Max Temperature 80 °F 76 °F 85 °F (1990)
Min Temperature 69 °F 61 °F 34 °F (1956)
Degree Days  
Heating Degree Days 0 2  
Month to date heating degree days 0 12  
Since 1 July heating degree days 22 44  
Cooling Degree Days 10 6  
Month to date cooling degree days 54 36  
Year to date cooling degree days 54 36  
Growing Degree Days 26 (Base 50)    
Moisture  
Dew Point 69 °F    
Average Humidity 81    
Maximum Humidity 93    
Minimum Humidity 69    
Precipitation  
Precipitation 0.07 in 0.08 in 1.00 in (1958)
Month to date precipitation 0.08 0.50  
Year to date precipitation 0.08 0.50  
Snow  
Snow 0.00 in - - ()
Month to date snowfall 0.0  
Since 1 July snowfall 0.0  
Snow Depth 0.00 in    
Sea Level Pressure  
Sea Level Pressure 30.12 in    
Wind  
Wind Speed 7 mph (SE)    
Max Wind Speed 17 mph    
Max Gust Speed 22 mph    
Visibility 10 miles    
Events Rain    
T = Trace of Precipitation, MM = Missing Value Source: NWS Daily Summary

Daily Weather History Graph

Daily Weather History Graph

Search for Another Location

Airport or City:

Trip Planner

Search our weather history database for the weather conditions in past years. The results will help you decide how hot, cold, wet, or windy it might be!

Date:

Astronomy

Jan. 06, 2013 Rise Set
Actual Time 7:09 AM EST 5:44 PM EST
Civil Twilight 6:43 AM EST 6:09 PM EST
Nautical Twilight 6:15 AM EST 6:37 PM EST
Astronomical Twilight 5:47 AM EST 7:06 PM EST
Moon 1:34 AM EST (1/6) 1:00 PM EST (1/6)
Length of Visible Light 11h 25m
Length of Day
10h 35m
Waning Crescent, 33% of the Moon is Illuminated
Jan 6
Waning Crescent
Jan 11
New
Jan 18
First Quarter
Jan 26
Full
Feb 3
Last Quarter

Hourly Weather History & Observations

Time (EST) Temp. Heat Index Dew Point Humidity Pressure Visibility Wind Dir Wind Speed Gust Speed Precip Events Conditions
12:53 AM 72.0 °F - 68.0 °F 87% 30.18 in 10.0 mi ESE 6.9 mph - N/A   Clear
1:53 AM 73.0 °F - 68.0 °F 84% 30.16 in 10.0 mi ESE 6.9 mph - N/A   Scattered Clouds
2:53 AM 73.0 °F - 69.1 °F 87% 30.14 in 10.0 mi ESE 5.8 mph - N/A   Scattered Clouds
3:53 AM 73.9 °F - 70.0 °F 87% 30.12 in 10.0 mi SE 8.1 mph - N/A   Overcast
4:53 AM 72.0 °F - 70.0 °F 93% 30.12 in 7.0 mi South 4.6 mph - 0.04 in Rain Light Rain
5:53 AM 72.0 °F - 70.0 °F 93% 30.12 in 10.0 mi Calm Calm - 0.02 in Rain Light Rain
6:53 AM 73.0 °F - 70.0 °F 90% 30.13 in 10.0 mi SE 4.6 mph - 0.01 in   Mostly Cloudy
7:53 AM 73.9 °F - 71.1 °F 91% 30.15 in 10.0 mi SE 9.2 mph - N/A   Mostly Cloudy
8:53 AM 75.9 °F - 70.0 °F 82% 30.16 in 10.0 mi SE 9.2 mph - N/A   Mostly Cloudy
9:53 AM 78.1 °F - 70.0 °F 76% 30.16 in 10.0 mi SE 11.5 mph 17.3 mph N/A   Scattered Clouds
10:53 AM 79.0 °F - 71.1 °F 77% 30.15 in 10.0 mi SE 11.5 mph 20.7 mph N/A   Scattered Clouds
11:53 AM 78.1 °F - 70.0 °F 76% 30.13 in 10.0 mi SE 9.2 mph - N/A   Mostly Cloudy
12:53 PM 80.1 °F 83.2 °F 70.0 °F 71% 30.10 in 10.0 mi SSE 12.7 mph - N/A   Mostly Cloudy
1:53 PM 79.0 °F - 69.1 °F 72% 30.08 in 10.0 mi SSE 13.8 mph 21.9 mph N/A   Scattered Clouds
2:53 PM 79.0 °F - 70.0 °F 74% 30.07 in 10.0 mi SSE 13.8 mph 18.4 mph N/A   Mostly Cloudy
3:53 PM 78.1 °F - 70.0 °F 76% 30.06 in 10.0 mi SE 15.0 mph - N/A   Mostly Cloudy
4:53 PM 77.0 °F - 69.1 °F 76% 30.07 in 10.0 mi SSE 10.4 mph - N/A   Scattered Clouds
5:53 PM 75.9 °F - 68.0 °F 76% 30.07 in 10.0 mi SSE 8.1 mph - N/A   Partly Cloudy
6:53 PM 75.0 °F - 69.1 °F 82% 30.09 in 10.0 mi Calm Calm - N/A   Clear
7:53 PM 73.9 °F - 69.1 °F 85% 30.11 in 10.0 mi Calm Calm - N/A   Clear
8:53 PM 73.9 °F - 69.1 °F 85% 30.11 in 10.0 mi Calm Calm - N/A   Clear
9:53 PM 73.0 °F - 69.1 °F 87% 30.12 in 10.0 mi Calm Calm - N/A   Clear
10:53 PM 71.1 °F - 68.0 °F 90% 30.12 in 10.0 mi Calm Calm - N/A   Clear
11:53 PM 70.0 °F - 68.0 °F 93% 30.12 in 10.0 mi Calm Calm - N/A   Clear